Погода в Актобе

Казахстан     50˚18′01″N   57˚09′16″E
темп.,
°C
ветер,
м/с
пор.,
м/с
влажн.,
%
обл.,
%
осадки,
мм/ч
давл.,
гПа
погр.,
м
16 января, сб
сб1623:00−5˚юв61383100 0.0 1009383
02:00−4˚ююв81581100 0.0 1007420
05:00−5˚ююв61385100 0.0 1007385
08:00−4˚ююз51095100 0.6 1006283
11:00+1˚з71192100 1.1 1009620
14:00−3˚з6118984 0.0 1012578
17:00−9˚зюз479050 0.0 1016124
20:00−12˚юз35930 0.0 101847
17 января, вс
вс1723:00−11˚юз58910 0.0 1019126
02:00−10˚ююз613911 0.0 1018235
05:00−10˚ююз613901 0.0 1018270
08:00−11˚ююз510920 0.0 1017183
11:00−9˚юз5109334 0.1 1017349
14:00−6˚зюз5992100 0.1 1017441
17:00−10˚зюз229598 0.1 101721
20:00−13˚зюз019597 0.0 101721
18 января, пн
пн1823:00−12˚св129299 0.0 101721
02:00−10˚всв228698 0.0 101721
05:00−8˚всв348599 0.0 101690
08:00−8˚в3587100 0.0 1015124
11:00−8˚вюв4887100 0.0 1015256
14:00−6˚вюв498567 0.0 1013294
17:00−8˚в448738 0.0 101370
20:00−11˚в488876 0.0 1012139
19 января, вт
вт1923:00−11˚вюв5118888 0.0 1011225
02:00−11˚вюв51090100 0.0 1010246
05:00−13˚вюв5992100 0.0 1009166
08:00−13˚вюв4792100 0.0 1007124
11:00−9˚юв5895100 1.1 1007281
14:00−5˚ююз4692100 1.6 1007471
17:00−11˚зюз71291100 1.8 1009413
20:00−17˚з4995100 0.0 1013182
20 января, ср
ср2023:00−19˚зюз489898 0.0 1017154
02:00−21˚юз349984 0.0 101837
05:00−22˚юз349878 0.0 102030
08:00−20˚юз349791 0.0 102071
11:00−16˚ююз469596 0.1 1021269
14:00−13˚юз579198 0.1 1020385
17:00−16˚юз349494 0.1 102061
20:00−18˚юз339784 0.0 102027